Regional Weather Roundup
Issued by NWS Little Rock, AR

Home | Current Version | Previous Version | Text Only | Print | Product List | Glossary On
Versions: 1 2 3 4 5 6 7 8 9 10 11 12 13 14 15 16 17 18 19 20 21 22 23 24 25 26 27 28 29 30 31
000
ASUS44 KLZK 280705
RWRLZK

WEATHER ROUNDUP FOR ARKANSAS
NATIONAL WEATHER SERVICE LITTLE ROCK AR
200 AM CDT FRI JUL 28 2017

NOTE: "FAIR" INDICATES FEW OR NO CLOUDS BELOW 12,000 FEET WITH NO
SIGNIFICANT WEATHER AND/OR OBSTRUCTIONS TO VISIBILITY.

ARZ001-003-010-029-280800-
NORTHWEST ARKANSAS

CITY           SKY/WX    TMP DP  RH WIND       PRES   REMARKS
FAYETTEVILLE   LGT RAIN  77  75  93 SW6G18    29.92R FOG
FORT SMITH     RAIN      79  76  90 SW9       29.86S FOG
HARRISON       CLOUDY    76  76 100 SW5       29.91F FOG
BENTONVILLE    CLOUDY    77  73  88 CALM      29.91F THUNDER
ROGERS         TSTM      76  74  93 NE7       29.93S FOG
SILOAM SPGS    CLOUDY    79  72  78 NW6       29.92R THUNDER
$$

ARZ004-005-016-280800-
NORTH CENTRAL ARKANSAS

CITY           SKY/WX    TMP DP  RH WIND       PRES   REMARKS
BATESVILLE     CLOUDY    79  73  83 SW6       29.86F
FLIPPIN        CLOUDY    79  72  78 N7        29.87S THUNDER
MTN HOME       CLOUDY    77  76  96 CALM      29.89F
$$

ARZ040-041-280800-
WEST CENTRAL ARKANSAS

CITY           SKY/WX    TMP DP  RH WIND       PRES   REMARKS
MENA           PTCLDY    86  75  70 SW5       29.92F HX  95
MOUNT IDA      MOCLDY    85  70  60 VRB5      29.87F HX  89
$$

ARZ009-017-025-026-028-280800-
NORTHEAST ARKANSAS

CITY           SKY/WX    TMP DP  RH WIND       PRES   REMARKS
CORNING        LGT RAIN  77  77 100 CALM      29.86F
JONESBORO      MOCLDY    79  77  94 SW7       29.85F
WALNUT RIDGE   CLOUDY    77  72  83 S3        29.85F
BLYTHEVILLE    CLOUDY    78  76  93 SW3       29.85F
$$

ARZ022-023-033-042-044-280800-
CENTRAL ARKANSAS

CITY           SKY/WX    TMP DP  RH WIND       PRES   REMARKS
LITTLE ROCK    CLOUDY    83  77  82 S6        29.88F HX  92
N LITTLE ROCK    N/A     80  77  90 CALM      29.86F HX  85
JACKSONVILLE   CLOUDY    78  78 100 N5        29.87F
CONWAY           N/A     79  77  94 CALM      29.85F
SEARCY         CLOUDY    76  76 100 SW8       29.88F
HOT SPRINGS    CLOUDY    83  75  77 VRB3      29.89F HX  90
RUSSELLVILLE   PTCLDY    78  78 100 CALM      29.86F
CLINTON        MOCLDY    77  75  94 CALM      29.88F
$$

ARZ036-280800-
EAST ARKANSAS

CITY           SKY/WX    TMP DP  RH WIND       PRES   REMARKS
WEST MEMPHIS   CLOUDY    80  79  96 SW7       29.85F HX  88
$$

ARZ050-053-066-070-073-280800-
SOUTHWEST ARKANSAS

CITY           SKY/WX    TMP DP  RH WIND       PRES   REMARKS
ARKADELPHIA    FAIR      79  76  90 CALM      29.89F
CAMDEN         CLOUDY    81  72  74 SW3       29.89S
TEXARKANA      CLEAR     81  74  79 S8        29.90S HX  86
EL DORADO      PTCLDY    78  74  87 S3        29.91F
DE QUEEN       PTCLDY    77  77 100 CALM      29.87S
$$

ARZ056-057-069-280800-
SOUTHEAST ARKANSAS

CITY           SKY/WX    TMP DP  RH WIND       PRES   REMARKS
PINE BLUFF     CLOUDY    81  75  82 SW3       29.89S HX  87
STUTTGART      CLOUDY    81  64  57 N6        29.90F
MONTICELLO     MOCLDY    83  73  72 SW8       29.90S HX  89

$$






USA.gov is the U.S. government's official web portal to all federal, state and local government web resources and services.